User: anonymous
Location: Trois-Rivi�res
(46.3500°N, 72.5500°W)
Time: 02:55:17
(UTC-04:00)
Language:

Cosmos 1544 - Orbit

View from above orbital plane
View from above orbital plane
View from above satellite
View from above satellite

Ground track
Ground track

The orbit data is extracted from the following two-line orbital elements,

1 14819U 84027A   14244.06853562  .00005320  00000-0  26227-3 0    43
2 14819 082.4909 328.3641 0017330 020.8741 035.1187 15.17592876660558
Epoch (UTC): 01 September 2014 01:38:41
Eccentricity: 0.0017330
inclination: 82.4909°
perigee height: 501 km
apogee height: 525 km
right ascension of ascending node: 328.3641°
argument of perigee: 20.8741°
revolutions per day: 15.17592876
mean anomaly at epoch: 35.1187°
orbit number at epoch: 66055

The dashed part of the orbit path shows where the satellite is in the earth's shadow,  

DLR